Location: Bouchavesnes-Bergen
(49.9859°N, 2.9203°E)
Time: 15:43:43
(UTC+00:00)

NOAA 16 DEB - Pass Details

Date: 02 October 2021
Orbit: 798 x 841 km, 98.8° (Epoch: 25 October)

Event Time Altitude Azimuth Distance (km) Brightness Sun altitude
Exits shadow 21:08:33 13° 24° (NNE) 2,196 ? -34.3°
Drops below altitude 10° 21:09:24 10° 15° (NNE) 2,385 ? -34.4°
Sets 21:12:31 0° 356° (N) 3,319 ? -34.7°
